Погода в Речном

Россия / Кировская область     58°17′22″N   49°48′49″E
темп.,
°C
ветер,
м/с
пор.,
м/с
влажн.,
%
обл.,
%
осадки,
мм/ч
давл.,
гПа
погр.,
м
14 июня, пн
пн1400:00+15ююв310958 0.1 1013207
03:00+14ююв37975 0.2 1013143
06:00+17ю3990100 0.1 1013323
09:00+22ююз5763100 0.1 1013942
12:00+23ююз685969 0.6 10131855
15:00+22зюз57735 2.7 10131268
18:00+21юз368354 1.2 1013519
21:00+17юз2595100 2.1 101394
15 июня, вт
вт1500:00+15зюз26957 0.0 101497
03:00+14зсз239621 0.0 101457
06:00+18юз12840 0.0 1014120
09:00+24з12554 0.1 1014822
12:00+26ююз2241100 0.0 10132524
15:00+23ююв2465100 0.0 1013170
18:00+21ю237287 0.0 101267
21:00+18ю368579 0.1 1012102
16 июня, ср
ср1600:00+16ю259199 0.0 101278
03:00+16ю249288 0.0 101186
06:00+20ю357966 0.0 1011307
09:00+24ю35615 0.0 1009903
12:00+27ю345066 0.0 10081457
15:00+25ююв3472100 2.3 1005237
18:00+18ссз51195100 8.2 1005550
21:00+16сз61296100 31.8 1008747
17 июня, чт
чт1700:00+12сз413940 0.0 1009565
03:00+10сз41392100 0.0 1011540
06:00+12ссз513830 0.0 1013675
09:00+17ссз58530 0.0 10141582
12:00+20ссз57395 0.0 10152328
15:00+21ссз473758 0.0 10162464
18:00+18ссз585212 0.0 10181116
21:00+12сз24775 0.0 102073
18 июня, пт
пт1800:00+10сз258115 0.0 102185
03:00+9сз27835 0.0 1022149
06:00+13ссз35695 0.0 1023310
09:00+18сз46481 0.0 10231387
12:00+21сз45375 0.0 10221751
15:00+22зсз473616 0.0 10211893
18:00+21з3753100 0.0 1021482
21:00+15зюз367156 0.0 102196